This is the latest recevied weather packets stored in our database for station/object nz4d-1. If no packets are shown the sender has not sent any weather packets the latest 10 day(s).
| Time | Temp. | Humidity | Pressure | Rain* | Wind** | Luminosity | Snow |
|---|---|---|---|---|---|---|---|
| 1778080807 | 23.89° C | 71% | 1015.9 hPa | 0 mm | - | - | - |
| 1778080205 | 23.89° C | 73% | 1016 hPa | 0 mm | - | - | - |
| 1778073005 | 20° C | 84% | 1016.1 hPa | 0 mm | - | - | - |
| 1778066405 | 15.56° C | 94% | 1015.8 hPa | 0 mm | - | - | - |
| 1778058605 | 15° C | 92% | 1015.7 hPa | 0 mm | - | - | - |
| 1778055606 | 15° C | 89% | 1016.1 hPa | 0 mm | - | - | - |
| 1778053805 | 15.56° C | 88% | 1016.1 hPa | 0 mm | - | - | - |
| 1778047804 | 16.11° C | 86% | 1016.2 hPa | 0 mm | - | - | - |
| 1778047204 | 16.11° C | 86% | 1016.2 hPa | 0 mm | - | - | - |
| 1778046005 | 16.11° C | 85% | 1016.7 hPa | 0 mm | - | - | - |
| 1778043605 | 16.67° C | 83% | 1016.9 hPa | 0 mm | - | - | - |
| 1778034605 | 18.89° C | 74% | 1017.3 hPa | 0 mm | - | - | - |
| 1778033404 | 18.89° C | 73% | 1017.2 hPa | 0 mm | - | - | - |
| 1778032205 | 19.44° C | 73% | 1017.1 hPa | 0 mm | - | - | - |
| 1778031005 | 20° C | 73% | 1017 hPa | 0 mm | - | - | - |
| 1778029205 | 20.56° C | 71% | 1016.7 hPa | 0 mm | - | - | - |
| 1778028604 | 20.56° C | 70% | 1016.5 hPa | 0 mm | - | - | - |
| 1778025004 | 22.22° C | 66% | 1016.1 hPa | 0 mm | - | - | - |
| 1778024405 | 22.22° C | 65% | 1016.2 hPa | 0 mm | - | - | - |
| 1778022605 | 23.33° C | 63% | 1015.8 hPa | 0 mm | - | - | - |
| 1778021404 | 23.33° C | 61% | 1015.9 hPa | 0 mm | - | - | - |
| 1778014804 | 25.56° C | 53% | 1015.5 hPa | 0 mm | - | - | - |
| 1778013604 | 25.56° C | 53% | 1015.5 hPa | 0 mm | - | - | - |
| 1778006404 | 25.56° C | 52% | 1017.1 hPa | 0 mm | - | - | - |
| 1778002203 | 25.56° C | 53% | 1017.4 hPa | 0 mm | - | - | - |
* Rain latest hour (hover to see other rain measurements)
** Current wind speed in m/s (hover to see current wind gust speed)